Home   Weather   Niamey   Past weeks

Flag for Niger Past Weather in Niamey, Niger — Yesterday and Last 2 Weeks

Now
95 °F

Clear.


Feels Like: 90 °F
Forecast: 71 / 98 °F
Wind: 7 mph from Northeast

Location: Niamey-Aero

Current Time: Jan 19, 2017 at 4:26:45 pm

Latest Report: Jan 19, 2017 at 3:00 pm


Visibility: 5 mi

Pressure: 29.86 "Hg

Humidity: 6%

Dew Point: 18 °F

Location of NiameyLocation

Past Weather in Niamey — Graph

°F

Niamey Temperature Yesterday

Maximum temperature yesterday: 95 °F (at 4:00 pm)
Minimum temperature yesterday: 68 °F (at 5:00 am)
Average temperature yesterday: 81 °F

High & Low Weather Summary for the Past Weeks

 TemperatureHumidityPressure
High95 °F (Jan 18, 4:00 pm)30% (Jan 11, 3:00 am)30.04 "Hg (Jan 11, 3:00 am)
Low61 °F (Jan 10, 7:00 am)4% (Jan 17, 3:00 pm)29.77 "Hg (Jan 10, 4:00 pm)
Average76 °F14%29.89 "Hg
* Reported Jan 4 3:00 pm — Jan 19 3:00 pm, Niamey, Weather by CustomWeather, © 2017

Note: Actual official high and low records may vary slightly from our data, if they occured in-between our weather recording intervals... More about our weather records

Advertising

Niamey Weather History for the Previous 24 Hours

Scroll right to see more
 ConditionsComfort  
Time TempWeatherWind HumidityBarometerVisibility
3:00 pm
Thu, Jan 19
95 °FClear.7 mph6%29.86 "Hg5 mi
2:00 pm93 °FClear.7 mph6%29.89 "Hg5 mi
1:00 pm91 °FClear.7 mph6%29.89 "Hg5 mi
12:00 pm88 °FClear.9 mph7%29.92 "Hg5 mi
11:00 am84 °FClear.7 mph9%29.92 "Hg5 mi
10:00 am79 °FClear.5 mph9%29.95 "Hg4 mi
9:00 am75 °FDuststorm.3 mph12%29.92 "Hg2 mi
8:00 am68 °FClear.No wind21%29.89 "Hg4 mi
7:00 am72 °FClear.3 mph12%29.89 "Hg5 mi
6:00 am72 °FClear.6 mph13%29.86 "Hg5 mi
5:00 am73 °FClear.5 mph12%29.86 "Hg5 mi
4:00 am73 °FClear.6 mph13%29.86 "Hg5 mi
3:00 am73 °FClear.5 mph14%29.86 "Hg4 mi
2:00 am73 °FClear.3 mph17%29.86 "Hg4 mi
1:00 am73 °FDuststorm.3 mph17%29.86 "Hg2 mi
12:00 am77 °FDuststorm.3 mph15%29.89 "Hg2 mi
11:00 pm
Wed, Jan 18
79 °FDuststorm.2 mph15%29.89 "Hg2 mi
10:00 pm81 °FDuststorm.3 mph13%29.89 "Hg3 mi
9:00 pm86 °FDuststorm.7 mph8%29.86 "Hg3 mi
8:00 pm88 °FDuststorm.7 mph8%29.83 "Hg3 mi
7:00 pm88 °FDuststorm.2 mph8%29.80 "Hg3 mi
6:00 pm93 °FDuststorm.5 mph7%29.80 "Hg3 mi
5:00 pm95 °FDuststorm.5 mph6%29.80 "Hg3 mi
4:00 pm95 °FDuststorm.6 mph6%29.80 "Hg3 mi
Weather by CustomWeather, © 2017

See weather overviewHow to use our weather pages